Weather History for Istanbul, Turkey

Change the Weather History Date:

Wednesday, November 27, 2013

  Actual Average Record
Temperature  
Mean Temperature 57 °F -  
Max Temperature 64 °F 50 °F 68 °F (2010)
Min Temperature 50 °F 42 °F 32 °F (2005)
Degree Days  
Heating Degree Days 8    
Growing Degree Days 7 (Base 50)    
Moisture  
Dew Point 51 °F    
Average Humidity 81    
Maximum Humidity 94    
Minimum Humidity 54    
Precipitation  
Precipitation 0.24 in - - ()
Sea Level Pressure  
Sea Level Pressure 30.01 in    
Wind  
Wind Speed 5 mph ()    
Max Wind Speed 12 mph    
Max Gust Speed -    
Visibility 6.0 miles    
Events Rain , Thunderstorm    
Averages and records for this station are not official NWS values.
T = Trace of Precipitation, MM = Missing Value Source: Averaged Metar Reports

Daily Weather History Graph

Daily Weather History Graph

Search for Another Location

Airport:

Trip Planner

Search our weather history database for the weather conditions in past years. The results will help you decide how hot, cold, wet, or windy it might be!

Date:

Astronomy

Nov. 27, 2013 Rise Set
Actual Time 7:05 AM EET 4:38 PM EET
Civil Twilight 6:35 AM EET 5:08 PM EET
Nautical Twilight 6:01 AM EET 5:42 PM EET
Astronomical Twilight 5:28 AM EET 6:15 PM EET
Moon 12:45 AM EET (11/27) 1:08 PM EET (11/27)
Length of Visible Light 10h 33m
Length of Day
9h 32m
Waning Crescent, 34% of the Moon is Illuminated
Nov 27
Waning Crescent
Dec 3
New
Dec 9
First Quarter
Dec 17
Full
Dec 25
Last Quarter

Hourly Weather History & Observations

Time (EET) Temp. Dew Point Humidity Pressure Visibility Wind Dir Wind Speed Gust Speed Precip Events Conditions
12:20 AM 55.4 °F 50.0 °F 82% 29.86 in 6.2 mi South 4.6 mph - N/A   Mostly Cloudy
12:50 AM 55.4 °F 51.8 °F 88% 29.86 in 6.2 mi Variable 2.3 mph - N/A   Mostly Cloudy
1:20 AM 55.4 °F 51.8 °F 88% 29.89 in 6.2 mi East 4.6 mph - N/A   Mostly Cloudy
1:50 AM 55.4 °F 51.8 °F 88% 29.89 in 6.2 mi Variable 1.2 mph - N/A   Mostly Cloudy
2:00 AM 56 °F 51 °F 79% 29.90 in 12 mi NE 1.2 mph - -   Partly Cloudy
2:20 AM 53.6 °F 51.8 °F 94% 29.89 in 6.2 mi NNE 3.5 mph - N/A   Mostly Cloudy
2:50 AM 53.6 °F 51.8 °F 94% 29.89 in 6.2 mi ENE 3.5 mph - N/A   Mostly Cloudy
3:20 AM 53.6 °F 51.8 °F 94% 29.89 in 6.2 mi NNE 3.5 mph - N/A   Mostly Cloudy
3:50 AM 53.6 °F 51.8 °F 94% 29.92 in 6.2 mi North 5.8 mph - N/A   Mostly Cloudy
4:20 AM 51.8 °F 50.0 °F 94% 29.92 in 6.2 mi North 4.6 mph - N/A   Mostly Cloudy
4:50 AM 53.6 °F 51.8 °F 94% 29.92 in 6.2 mi NNE 4.6 mph - N/A   Mostly Cloudy
5:00 AM 53 °F 51 °F 91% 29.93 in 6 mi NNE 4.6 mph - -   Partly Cloudy
5:20 AM 53.6 °F 50.0 °F 88% 29.92 in 6.2 mi ENE 4.6 mph - N/A   Mostly Cloudy
5:50 AM 53.6 °F 50.0 °F 88% 29.92 in 6.2 mi ENE 4.6 mph - N/A   Mostly Cloudy
6:20 AM 53.6 °F 50.0 °F 88% 29.92 in 6.2 mi NE 4.6 mph - N/A   Mostly Cloudy
6:50 AM 53.6 °F 50.0 °F 88% 29.95 in 6.2 mi ENE 4.6 mph - N/A   Mostly Cloudy
7:20 AM 57.2 °F 50.0 °F 77% 29.95 in 6.2 mi Variable 5.8 mph - N/A   Mostly Cloudy
7:50 AM 55.4 °F 50.0 °F 82% 29.95 in 6.2 mi East 4.6 mph - N/A   Mostly Cloudy
8:00 AM 55 °F 50 °F 76% 29.97 in 6 mi East 4.6 mph - -   Partly Cloudy
8:20 AM 57.2 °F 50.0 °F 77% 29.98 in 6.2 mi ENE 6.9 mph - N/A   Mostly Cloudy
8:50 AM 57.2 °F 50.0 °F 77% 29.98 in 6.2 mi East 6.9 mph - N/A   Mostly Cloudy
9:20 AM 59.0 °F 50.0 °F 72% 29.98 in 6.2 mi East 5.8 mph - N/A   Scattered Clouds
9:50 AM 59.0 °F 50.0 °F 72% 29.98 in 6.2 mi East 4.6 mph - N/A   Scattered Clouds
10:20 AM 59.0 °F 50.0 °F 72% 30.01 in 4.3 mi NE 6.9 mph - N/A   Mostly Cloudy
10:50 AM 59.0 °F 51.8 °F 77% 30.01 in 4.3 mi ENE 5.8 mph - N/A   Mostly Cloudy
11:00 AM 59 °F 51 °F 66% 30.01 in 4 mi ENE 5.8 mph - -   Partly Cloudy
11:20 AM 59.0 °F 51.8 °F 77% 30.01 in 4.3 mi NE 8.1 mph - N/A   Mostly Cloudy
11:50 AM 59.0 °F 50.0 °F 72% 30.01 in 6.2 mi NE 6.9 mph - N/A   Mostly Cloudy
12:20 PM 62.6 °F 51.8 °F 68% 30.01 in 6.2 mi ENE 8.1 mph - N/A   Mostly Cloudy
12:50 PM 62.6 °F 51.8 °F 68% 30.01 in 6.2 mi ENE 6.9 mph - N/A   Mostly Cloudy
1:20 PM 62.6 °F 50.0 °F 63% 30.01 in 6.2 mi East 6.9 mph - N/A   Mostly Cloudy
1:50 PM 62.6 °F 50.0 °F 63% 30.01 in 6.2 mi East 9.2 mph - N/A   Mostly Cloudy
2:00 PM 62 °F 50 °F 54% 30.01 in 6 mi East 9.2 mph - -   Partly Cloudy
2:20 PM 60.8 °F 51.8 °F 72% 30.01 in 6.2 mi NE 9.2 mph - N/A   Mostly Cloudy
2:50 PM 59.0 °F 51.8 °F 77% 30.01 in 6.2 mi NE 11.5 mph - N/A   Mostly Cloudy
3:03 PM 59.0 °F 51.8 °F 77% 30.01 in 4.3 mi NE 9.2 mph - N/A Rain Light Rain Showers
3:20 PM 59.0 °F 53.6 °F 82% 30.04 in 3.7 mi NNE 10.4 mph - N/A Rain Light Rain Showers
3:50 PM 57.2 °F 53.6 °F 88% 30.04 in 2.5 mi NNE 9.2 mph - N/A Rain , Thunderstorm Light Thunderstorms and Rain
4:20 PM 57.2 °F 53.6 °F 88% 30.06 in 6.2 mi East 6.9 mph - N/A Rain Light Rain Showers
4:50 PM 57.2 °F 51.8 °F 82% 30.06 in 6.2 mi NE 8.1 mph - N/A Rain Light Rain Showers
5:00 PM 56 °F 52 °F 81% 30.06 in 6 mi NE 8.1 mph - - Rain Light Rain Showers
5:20 PM 55.4 °F 51.8 °F 88% 30.06 in 6.2 mi ENE 4.6 mph - N/A   Mostly Cloudy
5:50 PM 55.4 °F 51.8 °F 88% 30.06 in 6.2 mi ENE 6.9 mph - N/A   Mostly Cloudy
6:20 PM 55.4 °F 51.8 °F 88% 30.06 in 6.2 mi East 8.1 mph - N/A   Mostly Cloudy
6:50 PM 57.2 °F 51.8 °F 82% 30.06 in 6.2 mi ENE 5.8 mph - N/A   Mostly Cloudy
7:20 PM 57.2 °F 51.8 °F 82% 30.09 in 6.2 mi NE 4.6 mph - N/A   Mostly Cloudy
7:50 PM 57.2 °F 51.8 °F 82% 30.09 in 6.2 mi ENE 4.6 mph - N/A   Mostly Cloudy
8:00 PM 56 °F 52 °F 81% 30.12 in 6 mi ENE 4.6 mph - -   Partly Cloudy
8:20 PM 57.2 °F 51.8 °F 82% 30.09 in 6.2 mi ESE 5.8 mph - N/A   Mostly Cloudy
8:50 PM 59.0 °F 53.6 °F 82% 30.12 in 6.2 mi SE 8.1 mph - N/A   Mostly Cloudy
9:20 PM 57.2 °F 50.0 °F 77% 30.12 in 6.2 mi ESE 6.9 mph - N/A   Mostly Cloudy
9:50 PM 55.4 °F 50.0 °F 82% 30.12 in 6.2 mi East 6.9 mph - N/A   Mostly Cloudy
10:20 PM 57.2 °F 50.0 °F 77% 30.12 in 6.2 mi Variable 4.6 mph - N/A   Mostly Cloudy
10:50 PM 55.4 °F 50.0 °F 82% 30.15 in 6.2 mi North 5.8 mph - N/A   Mostly Cloudy
11:00 PM 54 °F 51 °F 85% 30.16 in 6 mi North 5.8 mph - -   Mostly Cloudy
11:20 PM 53.6 °F 50.0 °F 88% 30.15 in 6.2 mi NW 6.9 mph - N/A   Mostly Cloudy
11:50 PM 51.8 °F 48.2 °F 88% 30.15 in 6.2 mi NW 11.5 mph - N/A   Mostly Cloudy